Time,TemperatureF,DewpointF,PressureIn,WindDirection,WindDirectionDegrees,WindSpeedMPH,WindSpeedGustMPH,Humidity,HourlyPrecipIn,Conditions,Clouds,dailyrainin,SoftwareType,DateUTC
2013-04-27 00:04:00,50.0,36.7,30.40,SSE,149,0.0,2.0,60,0.00,,,0.00,Wunderground PWS Mod,2013-04-27 04:04:00,
2013-04-27 00:14:00,49.2,36.3,30.39,SSE,149,1.0,2.0,61,0.00,,,0.00,Wunderground PWS Mod,2013-04-27 04:14:00,
2013-04-27 00:18:00,48.6,37.0,30.40,SSE,158,1.0,2.0,64,0.00,,,0.00,Wunderground PWS Mod,2013-04-27 04:18:00,
2013-04-27 00:23:00,47.9,35.5,30.39,SSE,149,1.0,2.0,62,0.00,,,0.00,Wunderground PWS Mod,2013-04-27 04:23:00,
2013-04-27 00:25:00,47.6,35.6,30.40,SSE,149,1.0,2.0,63,0.00,,,0.00,Wunderground PWS Mod,2013-04-27 04:25:00,
2013-04-27 00:34:00,46.5,35.0,30.40,SSE,149,0.0,2.0,64,0.00,,,0.00,Wunderground PWS Mod,2013-04-27 04:34:00,
2013-04-27 00:36:00,46.2,35.1,30.40,SSE,149,2.0,2.0,65,0.00,,,0.00,Wunderground PWS Mod,2013-04-27 04:36:00,
2013-04-27 00:38:00,46.1,35.4,30.40,SSE,149,2.0,2.0,66,0.00,,,0.00,Wunderground PWS Mod,2013-04-27 04:38:00,
2013-04-27 00:44:00,45.4,34.7,30.40,SSE,149,0.0,2.0,66,0.00,,,0.00,Wunderground PWS Mod,2013-04-27 04:44:00,
2013-04-27 00:50:00,46.1,35.0,30.40,SSE,158,1.0,3.0,65,0.00,,,0.00,Wunderground PWS Mod,2013-04-27 04:50:00,
2013-04-27 00:52:00,46.1,35.0,30.40,SSE,158,1.0,3.0,65,0.00,,,0.00,Wunderground PWS Mod,2013-04-27 04:52:00,
2013-04-27 00:54:00,46.3,35.2,30.40,SSE,149,0.0,2.0,65,0.00,,,0.00,Wunderground PWS Mod,2013-04-27 04:54:00,
2013-04-27 01:04:00,46.7,35.2,30.40,SSE,149,1.0,2.0,64,0.00,,,0.00,Wunderground PWS Mod,2013-04-27 05:04:00,
2013-04-27 01:14:00,47.3,35.7,30.40,SSE,149,0.0,3.0,64,0.00,,,0.00,Wunderground PWS Mod,2013-04-27 05:14:00,
2013-04-27 01:18:00,47.0,35.8,30.40,SSE,158,0.0,2.0,65,0.00,,,0.00,Wunderground PWS Mod,2013-04-27 05:18:00,
2013-04-27 01:23:00,47.2,35.6,30.40,SSE,149,1.0,3.0,64,0.00,,,0.00,Wunderground PWS Mod,2013-04-27 05:23:00,
2013-04-27 01:34:00,46.6,35.5,30.39,SSE,149,1.0,3.0,65,0.00,,,0.00,Wunderground PWS Mod,2013-04-27 05:34:00,
2013-04-27 01:44:00,45.6,35.3,30.40,SSE,149,1.0,3.0,67,0.00,,,0.00,Wunderground PWS Mod,2013-04-27 05:44:00,
2013-04-27 01:48:00,45.7,35.7,30.39,SSE,158,0.0,2.0,68,0.00,,,0.00,Wunderground PWS Mod,2013-04-27 05:48:00,
2013-04-27 01:54:00,45.3,35.4,30.39,SSE,149,0.0,3.0,68,0.00,,,0.00,Wunderground PWS Mod,2013-04-27 05:54:00,
2013-04-27 02:04:00,45.4,35.5,30.39,SSE,149,1.0,2.0,68,0.00,,,0.00,Wunderground PWS Mod,2013-04-27 06:04:00,
2013-04-27 02:14:00,45.6,35.6,30.39,SSE,149,1.0,2.0,68,0.00,,,0.00,Wunderground PWS Mod,2013-04-27 06:14:00,
2013-04-27 02:16:00,45.7,35.7,30.39,SSE,158,0.0,2.0,68,0.00,,,0.00,Wunderground PWS Mod,2013-04-27 06:16:00,
2013-04-27 02:24:00,44.7,35.1,30.39,SSE,149,0.0,2.0,69,0.00,,,0.00,Wunderground PWS Mod,2013-04-27 06:24:00,
2013-04-27 02:34:00,44.7,35.5,30.39,SSE,149,0.0,2.0,70,0.00,,,0.00,Wunderground PWS Mod,2013-04-27 06:34:00,
2013-04-27 02:44:00,44.1,35.3,30.39,SSE,149,1.0,2.0,71,0.00,,,0.00,Wunderground PWS Mod,2013-04-27 06:44:00,
2013-04-27 02:48:00,44.7,35.5,30.39,SSE,158,1.0,2.0,70,0.00,,,0.00,Wunderground PWS Mod,2013-04-27 06:48:00,
2013-04-27 02:54:00,45.1,35.9,30.39,SSE,149,1.0,2.0,70,0.00,,,0.00,Wunderground PWS Mod,2013-04-27 06:54:00,
2013-04-27 03:04:00,45.2,36.0,30.39,SSE,149,1.0,2.0,70,0.00,,,0.00,Wunderground PWS Mod,2013-04-27 07:04:00,
2013-04-27 03:14:00,45.8,35.8,30.39,SSE,149,0.0,2.0,68,0.00,,,0.00,Wunderground PWS Mod,2013-04-27 07:14:00,
2013-04-27 03:20:00,45.2,36.0,30.39,SSE,158,0.0,2.0,70,0.00,,,0.00,Wunderground PWS Mod,2013-04-27 07:20:00,
2013-04-27 03:22:00,45.2,36.0,30.39,SSE,158,0.0,2.0,70,0.00,,,0.00,Wunderground PWS Mod,2013-04-27 07:22:00,
2013-04-27 03:24:00,44.6,35.1,30.39,SSE,149,1.0,2.0,69,0.00,,,0.00,Wunderground PWS Mod,2013-04-27 07:24:00,
2013-04-27 03:34:00,44.2,35.0,30.39,SSE,149,0.0,2.0,70,0.00,,,0.00,Wunderground PWS Mod,2013-04-27 07:34:00,
2013-04-27 03:44:00,44.3,35.1,30.39,SSE,149,0.0,2.0,70,0.00,,,0.00,Wunderground PWS Mod,2013-04-27 07:44:00,
2013-04-27 03:46:00,45.2,36.0,30.39,SSE,158,0.0,2.0,70,0.00,,,0.00,Wunderground PWS Mod,2013-04-27 07:46:00,
2013-04-27 03:54:00,44.8,35.6,30.39,SSE,149,0.0,2.0,70,0.00,,,0.00,Wunderground PWS Mod,2013-04-27 07:54:00,
2013-04-27 04:04:00,44.9,35.3,30.38,SSE,149,0.0,2.0,69,0.00,,,0.00,Wunderground PWS Mod,2013-04-27 08:04:00,
2013-04-27 04:14:00,43.6,34.5,30.38,SSE,149,0.0,2.0,70,0.00,,,0.00,Wunderground PWS Mod,2013-04-27 08:14:00,
2013-04-27 04:16:00,44.7,34.8,30.39,SSE,158,0.0,2.0,68,0.00,,,0.00,Wunderground PWS Mod,2013-04-27 08:16:00,
2013-04-27 04:24:00,42.7,34.3,30.38,SSE,149,0.0,2.0,72,0.00,,,0.00,Wunderground PWS Mod,2013-04-27 08:24:00,
2013-04-27 04:34:00,43.0,34.9,30.38,SSE,149,1.0,2.0,73,0.00,,,0.00,Wunderground PWS Mod,2013-04-27 08:34:00,
2013-04-27 04:44:00,43.4,35.0,30.38,SSE,149,0.0,2.0,72,0.00,,,0.00,Wunderground PWS Mod,2013-04-27 08:44:00,
2013-04-27 04:48:00,42.5,35.1,30.38,SSE,158,1.0,2.0,75,0.00,,,0.00,Wunderground PWS Mod,2013-04-27 08:48:00,
2013-04-27 04:54:00,41.8,33.8,30.38,SSE,149,1.0,2.0,73,0.00,,,0.00,Wunderground PWS Mod,2013-04-27 08:54:00,
2013-04-27 05:04:00,40.7,33.4,30.38,SSE,149,0.0,1.0,75,0.00,,,0.00,Wunderground PWS Mod,2013-04-27 09:04:00,
2013-04-27 05:14:00,40.3,33.3,30.38,SSE,149,0.0,2.0,76,0.00,,,0.00,Wunderground PWS Mod,2013-04-27 09:14:00,
2013-04-27 05:18:00,40.9,33.6,30.39,SSE,158,0.0,2.0,75,0.00,,,0.00,Wunderground PWS Mod,2013-04-27 09:18:00,
2013-04-27 05:24:00,41.1,34.1,30.39,SSE,149,1.0,2.0,76,0.00,,,0.00,Wunderground PWS Mod,2013-04-27 09:24:00,
2013-04-27 05:34:00,42.0,34.6,30.39,SSE,149,0.0,2.0,75,0.00,,,0.00,Wunderground PWS Mod,2013-04-27 09:34:00,
2013-04-27 05:44:00,43.1,34.7,30.39,SSE,149,0.0,2.0,72,0.00,,,0.00,Wunderground PWS Mod,2013-04-27 09:44:00,
2013-04-27 05:50:00,42.8,34.4,30.39,SSE,158,0.0,2.0,72,0.00,,,0.00,Wunderground PWS Mod,2013-04-27 09:50:00,
2013-04-27 05:52:00,42.8,34.4,30.39,SSE,158,0.0,2.0,72,0.00,,,0.00,Wunderground PWS Mod,2013-04-27 09:52:00,
2013-04-27 05:54:00,43.1,35.0,30.39,SSE,149,0.0,2.0,73,0.00,,,0.00,Wunderground PWS Mod,2013-04-27 09:54:00,
2013-04-27 06:04:00,42.7,34.3,30.39,SSE,149,0.0,2.0,72,0.00,,,0.00,Wunderground PWS Mod,2013-04-27 10:04:00,
2013-04-27 06:10:00,42.8,34.4,30.39,SSE,158,0.0,2.0,72,0.00,,,0.00,Wunderground PWS Mod,2013-04-27 10:10:00,
2013-04-27 06:12:00,42.8,34.4,30.39,SSE,158,0.0,2.0,72,0.00,,,0.00,Wunderground PWS Mod,2013-04-27 10:12:00,
2013-04-27 06:13:00,42.0,34.0,30.39,SSE,149,0.0,2.0,73,0.00,,,0.00,Wunderground PWS Mod,2013-04-27 10:13:00,
2013-04-27 06:24:00,42.4,34.0,30.39,SSE,149,1.0,2.0,72,0.00,,,0.00,Wunderground PWS Mod,2013-04-27 10:24:00,
2013-04-27 06:34:00,42.8,34.0,30.40,SSE,149,0.0,2.0,71,0.00,,,0.00,Wunderground PWS Mod,2013-04-27 10:34:00,
2013-04-27 06:38:00,42.4,33.7,30.40,SSE,158,0.0,2.0,71,0.00,,,0.00,Wunderground PWS Mod,2013-04-27 10:38:00,
2013-04-27 06:44:00,42.3,34.6,30.40,SSE,149,0.0,2.0,74,0.00,,,0.00,Wunderground PWS Mod,2013-04-27 10:44:00,
2013-04-27 06:54:00,43.2,35.5,30.40,SSE,149,1.0,2.0,74,0.00,,,0.00,Wunderground PWS Mod,2013-04-27 10:54:00,
2013-04-27 07:04:00,43.3,35.6,30.41,SSE,149,1.0,2.0,74,0.00,,,0.00,Wunderground PWS Mod,2013-04-27 11:04:00,
2013-04-27 07:06:00,42.8,34.7,30.41,SSE,158,0.0,2.0,73,0.00,,,0.00,Wunderground PWS Mod,2013-04-27 11:06:00,
2013-04-27 07:14:00,44.9,36.4,30.41,SSE,149,0.0,2.0,72,0.00,,,0.00,Wunderground PWS Mod,2013-04-27 11:14:00,
2013-04-27 07:24:00,46.5,37.2,30.41,SSE,149,2.0,2.0,70,0.00,,,0.00,Wunderground PWS Mod,2013-04-27 11:24:00,
2013-04-27 07:34:00,48.5,37.7,30.41,SSE,149,1.0,2.0,66,0.00,,,0.00,Wunderground PWS Mod,2013-04-27 11:34:00,
2013-04-27 07:44:00,50.1,38.8,30.42,SSE,149,2.0,3.0,65,0.00,,,0.00,Wunderground PWS Mod,2013-04-27 11:44:00,
2013-04-27 07:46:00,50.0,38.3,30.42,SSE,158,1.0,4.0,64,0.00,,,0.00,Wunderground PWS Mod,2013-04-27 11:46:00,
2013-04-27 07:54:00,50.9,38.7,30.42,SSE,149,1.0,3.0,63,0.00,,,0.00,Wunderground PWS Mod,2013-04-27 11:54:00,
2013-04-27 08:04:00,51.4,39.2,30.42,SSE,149,1.0,4.0,63,0.00,,,0.00,Wunderground PWS Mod,2013-04-27 12:04:00,
2013-04-27 08:06:00,50.0,38.3,30.42,SSE,158,1.0,4.0,64,0.00,,,0.00,Wunderground PWS Mod,2013-04-27 12:06:00,
2013-04-27 08:08:00,50.0,38.3,30.42,SSE,158,1.0,4.0,64,0.00,,,0.00,Wunderground PWS Mod,2013-04-27 12:08:00,
2013-04-27 08:13:00,53.0,40.3,30.42,SSE,149,0.0,4.0,62,0.00,,,0.00,Wunderground PWS Mod,2013-04-27 12:13:00,
2013-04-27 08:24:00,54.1,40.9,30.42,SE,127,1.0,4.0,61,0.00,,,0.00,Wunderground PWS Mod,2013-04-27 12:24:00,
2013-04-27 08:34:00,54.6,42.3,30.42,ESE,104,3.0,4.0,63,0.00,,,0.00,Wunderground PWS Mod,2013-04-27 12:34:00,
2013-04-27 08:44:00,55.7,42.9,30.42,East,87,4.0,6.0,62,0.00,,,0.00,Wunderground PWS Mod,2013-04-27 12:44:00,
2013-04-27 08:50:00,56.0,40.1,30.42,ESE,113,4.0,9.0,55,0.00,,,0.00,Wunderground PWS Mod,2013-04-27 12:50:00,
2013-04-27 08:52:00,56.0,40.1,30.42,ESE,113,4.0,9.0,55,0.00,,,0.00,Wunderground PWS Mod,2013-04-27 12:52:00,
2013-04-27 08:54:00,57.0,42.8,30.42,ENE,58,3.0,6.0,59,0.00,,,0.00,Wunderground PWS Mod,2013-04-27 12:54:00,
2013-04-27 09:04:00,57.1,41.1,30.42,ESE,102,3.0,6.0,55,0.00,,,0.00,Wunderground PWS Mod,2013-04-27 13:04:00,
2013-04-27 09:14:00,57.8,37.1,30.42,ESE,109,2.0,9.0,46,0.00,,,0.00,Wunderground PWS Mod,2013-04-27 13:14:00,
2013-04-27 09:18:00,58.0,35.6,30.42,ESE,113,4.0,8.0,43,0.00,,,0.00,Wunderground PWS Mod,2013-04-27 13:18:00,
2013-04-27 09:23:00,58.4,36.0,30.42,ESE,119,1.0,9.0,43,0.00,,,0.00,Wunderground PWS Mod,2013-04-27 13:23:00,
2013-04-27 09:34:00,58.8,36.3,30.41,ENE,69,2.0,9.0,43,0.00,,,0.00,Wunderground PWS Mod,2013-04-27 13:34:00,
2013-04-27 09:43:00,59.7,35.3,30.42,East,95,4.0,9.0,40,0.00,,,0.00,Wunderground PWS Mod,2013-04-27 13:43:00,
2013-04-27 09:46:00,58.0,35.6,30.42,ESE,113,4.0,8.0,43,0.00,,,0.00,Wunderground PWS Mod,2013-04-27 13:46:00,
2013-04-27 09:54:00,59.9,35.5,30.41,NE,56,4.0,9.0,40,0.00,,,0.00,Wunderground PWS Mod,2013-04-27 13:54:00,
2013-04-27 10:04:00,61.0,35.8,30.41,NE,43,2.0,8.0,39,0.00,,,0.00,Wunderground PWS Mod,2013-04-27 14:04:00,
2013-04-27 10:14:00,61.9,32.5,30.41,ENE,57,5.0,8.0,33,0.00,,,0.00,Wunderground PWS Mod,2013-04-27 14:14:00,
2013-04-27 10:16:00,59.7,34.0,30.41,ENE,68,3.0,7.0,38,0.00,,,0.00,Wunderground PWS Mod,2013-04-27 14:16:00,
2013-04-27 10:24:00,61.3,32.7,30.41,ENE,57,1.0,8.0,34,0.00,,,0.00,Wunderground PWS Mod,2013-04-27 14:24:00,
2013-04-27 10:34:00,62.6,33.1,30.41,North,9,2.0,8.0,33,0.00,,,0.00,Wunderground PWS Mod,2013-04-27 14:34:00,
2013-04-27 10:43:00,63.2,32.0,30.41,ENE,78,1.0,8.0,31,0.00,,,0.00,Wunderground PWS Mod,2013-04-27 14:43:00,
2013-04-27 10:48:00,63.4,32.2,30.41,ESE,113,3.0,7.0,31,0.00,,,0.00,Wunderground PWS Mod,2013-04-27 14:48:00,
2013-04-27 10:54:00,63.7,33.3,30.41,ESE,104,2.0,8.0,32,0.00,,,0.00,Wunderground PWS Mod,2013-04-27 14:54:00,
2013-04-27 11:04:00,64.3,33.0,30.41,SE,145,2.0,7.0,31,0.00,,,0.00,Wunderground PWS Mod,2013-04-27 15:04:00,
2013-04-27 11:06:00,63.4,32.2,30.41,ESE,113,3.0,7.0,31,0.00,,,0.00,Wunderground PWS Mod,2013-04-27 15:06:00,
2013-04-27 11:14:00,64.8,32.6,30.41,ESE,109,5.0,7.0,30,0.00,,,0.00,Wunderground PWS Mod,2013-04-27 15:14:00,
2013-04-27 11:24:00,64.9,35.1,30.41,East,100,3.0,7.0,33,0.00,,,0.00,Wunderground PWS Mod,2013-04-27 15:24:00,
2013-04-27 11:34:00,64.3,33.0,30.41,ENE,78,2.0,7.0,31,0.00,,,0.00,Wunderground PWS Mod,2013-04-27 15:34:00,
2013-04-27 11:44:00,64.1,32.8,30.40,ESE,104,4.0,9.0,31,0.00,,,0.00,Wunderground PWS Mod,2013-04-27 15:44:00,
2013-04-27 11:50:00,64.2,30.4,30.40,ESE,113,4.0,11.0,28,0.00,,,0.00,Wunderground PWS Mod,2013-04-27 15:50:00,
2013-04-27 11:52:00,64.2,30.4,30.40,ESE,113,4.0,11.0,28,0.00,,,0.00,Wunderground PWS Mod,2013-04-27 15:52:00,
2013-04-27 11:54:00,64.5,31.5,30.40,South,180,3.0,9.0,29,0.00,,,0.00,Wunderground PWS Mod,2013-04-27 15:54:00,
2013-04-27 12:04:00,64.3,30.5,30.40,SE,138,3.0,9.0,28,0.00,,,0.00,Wunderground PWS Mod,2013-04-27 16:04:00,
2013-04-27 12:14:00,64.6,30.7,30.39,ENE,73,3.0,11.0,28,0.00,,,0.00,Wunderground PWS Mod,2013-04-27 16:14:00,
2013-04-27 12:16:00,64.9,30.1,30.38,ENE,68,3.0,12.0,27,0.00,,,0.00,Wunderground PWS Mod,2013-04-27 16:16:00,
2013-04-27 12:24:00,64.8,30.0,30.38,ENE,72,3.0,11.0,27,0.00,,,0.00,Wunderground PWS Mod,2013-04-27 16:24:00,
2013-04-27 12:34:00,66.5,31.5,30.38,ENE,71,2.0,12.0,27,0.00,,,0.00,Wunderground PWS Mod,2013-04-27 16:34:00,
2013-04-27 12:38:00,64.9,30.1,30.38,ENE,68,3.0,12.0,27,0.00,,,0.00,Wunderground PWS Mod,2013-04-27 16:38:00,
2013-04-27 12:44:00,67.4,32.2,30.38,ENE,64,2.0,12.0,27,0.00,,,0.00,Wunderground PWS Mod,2013-04-27 16:44:00,
2013-04-27 12:54:00,66.5,32.4,30.38,NE,56,6.0,12.0,28,0.00,,,0.00,Wunderground PWS Mod,2013-04-27 16:54:00,
2013-04-27 13:04:00,66.5,31.5,30.37,SE,133,1.0,12.0,27,0.00,,,0.00,Wunderground PWS Mod,2013-04-27 17:04:00,
2013-04-27 13:14:00,66.5,31.5,30.37,SSW,206,4.0,12.0,27,0.00,,,0.00,Wunderground PWS Mod,2013-04-27 17:14:00,
2013-04-27 13:16:00,66.8,31.7,30.38,ENE,68,3.0,8.0,27,0.00,,,0.00,Wunderground PWS Mod,2013-04-27 17:16:00,
2013-04-27 13:24:00,66.2,31.2,30.36,South,182,4.0,12.0,27,0.00,,,0.00,Wunderground PWS Mod,2013-04-27 17:24:00,
2013-04-27 13:34:00,68.0,32.7,30.36,WSW,242,2.0,12.0,27,0.00,,,0.00,Wunderground PWS Mod,2013-04-27 17:34:00,
2013-04-27 13:44:00,67.5,32.3,30.35,NE,46,2.0,12.0,27,0.00,,,0.00,Wunderground PWS Mod,2013-04-27 17:44:00,
2013-04-27 13:50:00,67.9,30.8,30.34,SE,135,4.0,9.0,25,0.00,,,0.00,Wunderground PWS Mod,2013-04-27 17:50:00,
2013-04-27 13:52:00,67.9,30.8,30.34,SE,135,4.0,9.0,25,0.00,,,0.00,Wunderground PWS Mod,2013-04-27 17:52:00,
2013-04-27 13:54:00,67.7,32.5,30.35,ESE,117,4.0,12.0,27,0.00,,,0.00,Wunderground PWS Mod,2013-04-27 17:54:00,
2013-04-27 14:04:00,68.5,31.3,30.34,SE,143,5.0,9.0,25,0.00,,,0.00,Wunderground PWS Mod,2013-04-27 18:04:00,
2013-04-27 14:14:00,67.8,30.7,30.34,ESE,123,4.0,9.0,25,0.00,,,0.00,Wunderground PWS Mod,2013-04-27 18:14:00,
2013-04-27 14:18:00,67.7,30.6,30.34,ESE,113,5.0,10.0,25,0.00,,,0.00,Wunderground PWS Mod,2013-04-27 18:18:00,
2013-04-27 14:24:00,67.9,29.7,30.34,ESE,114,7.0,9.0,24,0.00,,,0.00,Wunderground PWS Mod,2013-04-27 18:24:00,
2013-04-27 14:34:00,66.9,29.9,30.34,ESE,120,3.0,9.0,25,0.00,,,0.00,Wunderground PWS Mod,2013-04-27 18:34:00,
2013-04-27 14:44:00,67.4,29.3,30.33,SSW,202,3.0,10.0,24,0.00,,,0.00,Wunderground PWS Mod,2013-04-27 18:44:00,
2013-04-27 14:46:00,67.7,30.6,30.34,ESE,113,5.0,10.0,25,0.00,,,0.00,Wunderground PWS Mod,2013-04-27 18:46:00,
2013-04-27 14:54:00,66.7,28.7,30.34,SE,145,3.0,10.0,24,0.00,,,0.00,Wunderground PWS Mod,2013-04-27 18:54:00,
2013-04-27 15:04:00,68.7,28.3,30.34,SE,131,5.0,10.0,22,0.00,,,0.00,Wunderground PWS Mod,2013-04-27 19:04:00,
2013-04-27 15:14:00,67.6,29.5,30.33,East,101,1.0,11.0,24,0.00,,,0.00,Wunderground PWS Mod,2013-04-27 19:14:00,
2013-04-27 15:16:00,67.1,29.1,30.34,SE,135,4.0,11.0,24,0.00,,,0.00,Wunderground PWS Mod,2013-04-27 19:16:00,
2013-04-27 15:23:00,68.9,28.5,30.33,South,185,3.0,11.0,22,0.00,,,0.00,Wunderground PWS Mod,2013-04-27 19:23:00,
2013-04-27 15:34:00,68.3,29.0,30.33,SE,133,11.0,11.0,23,0.00,,,0.00,Wunderground PWS Mod,2013-04-27 19:34:00,
2013-04-27 15:44:00,67.8,28.6,30.33,SE,137,4.0,13.0,23,0.00,,,0.00,Wunderground PWS Mod,2013-04-27 19:44:00,
2013-04-27 15:48:00,68.1,28.9,30.32,SE,135,6.0,14.0,23,0.00,,,0.00,Wunderground PWS Mod,2013-04-27 19:48:00,
2013-04-27 15:54:00,68.5,29.2,30.32,East,99,3.0,13.0,23,0.00,,,0.00,Wunderground PWS Mod,2013-04-27 19:54:00,
2013-04-27 16:04:00,67.5,29.4,30.32,East,100,4.0,13.0,24,0.00,,,0.00,Wunderground PWS Mod,2013-04-27 20:04:00,
2013-04-27 16:14:00,68.2,30.0,30.32,ESE,122,5.0,14.0,24,0.00,,,0.00,Wunderground PWS Mod,2013-04-27 20:14:00,
2013-04-27 16:18:00,68.3,29.0,30.31,ESE,113,5.0,9.0,23,0.00,,,0.00,Wunderground PWS Mod,2013-04-27 20:18:00,
2013-04-27 16:24:00,68.2,30.0,30.31,ESE,117,4.0,14.0,24,0.00,,,0.00,Wunderground PWS Mod,2013-04-27 20:24:00,
2013-04-27 16:34:00,68.7,30.4,30.31,ESE,112,3.0,14.0,24,0.00,,,0.00,Wunderground PWS Mod,2013-04-27 20:34:00,
2013-04-27 16:44:00,68.0,29.8,30.31,South,189,4.0,14.0,24,0.00,,,0.00,Wunderground PWS Mod,2013-04-27 20:44:00,
2013-04-27 16:46:00,68.1,29.9,30.31,ESE,113,5.0,11.0,24,0.00,,,0.00,Wunderground PWS Mod,2013-04-27 20:46:00,
2013-04-27 16:54:00,67.7,29.6,30.31,ESE,111,3.0,14.0,24,0.00,,,0.00,Wunderground PWS Mod,2013-04-27 20:54:00,
2013-04-27 17:04:00,67.3,30.2,30.31,SE,130,4.0,11.0,25,0.00,,,0.00,Wunderground PWS Mod,2013-04-27 21:04:00,
2013-04-27 17:06:00,68.1,29.9,30.31,ESE,113,5.0,11.0,24,0.00,,,0.00,Wunderground PWS Mod,2013-04-27 21:06:00,
2013-04-27 17:08:00,68.1,29.9,30.31,ESE,113,5.0,11.0,24,0.00,,,0.00,Wunderground PWS Mod,2013-04-27 21:08:00,
2013-04-27 17:10:00,68.1,29.9,30.31,ESE,113,5.0,11.0,24,0.00,,,0.00,Wunderground PWS Mod,2013-04-27 21:10:00,
2013-04-27 17:12:00,68.1,29.9,30.31,ESE,113,5.0,11.0,24,0.00,,,0.00,Wunderground PWS Mod,2013-04-27 21:12:00,
2013-04-27 17:14:00,67.4,30.3,30.30,SE,138,8.0,11.0,25,0.00,,,0.00,Wunderground PWS Mod,2013-04-27 21:14:00,
2013-04-27 17:24:00,67.1,30.1,30.30,ESE,108,4.0,11.0,25,0.00,,,0.00,Wunderground PWS Mod,2013-04-27 21:24:00,
2013-04-27 17:34:00,67.4,29.3,30.30,SE,124,4.0,11.0,24,0.00,,,0.00,Wunderground PWS Mod,2013-04-27 21:34:00,
2013-04-27 17:44:00,67.3,30.2,30.30,ESE,115,4.0,11.0,25,0.00,,,0.00,Wunderground PWS Mod,2013-04-27 21:44:00,
2013-04-27 17:50:00,67.3,30.2,30.30,SE,135,6.0,10.0,25,0.00,,,0.00,Wunderground PWS Mod,2013-04-27 21:50:00,
2013-04-27 17:52:00,67.3,30.2,30.30,SE,135,6.0,10.0,25,0.00,,,0.00,Wunderground PWS Mod,2013-04-27 21:52:00,
2013-04-27 17:54:00,67.5,29.4,30.30,SSE,148,7.0,11.0,24,0.00,,,0.00,Wunderground PWS Mod,2013-04-27 21:54:00,
2013-04-27 18:04:00,66.7,29.7,30.30,ESE,116,5.0,11.0,25,0.00,,,0.00,Wunderground PWS Mod,2013-04-27 22:04:00,
2013-04-27 18:14:00,66.7,29.7,30.30,SSE,164,4.0,11.0,25,0.00,,,0.00,Wunderground PWS Mod,2013-04-27 22:14:00,
2013-04-27 18:18:00,66.8,29.8,30.30,SE,135,5.0,11.0,25,0.00,,,0.00,Wunderground PWS Mod,2013-04-27 22:18:00,
2013-04-27 18:24:00,67.0,30.0,30.30,SSE,149,6.0,11.0,25,0.00,,,0.00,Wunderground PWS Mod,2013-04-27 22:24:00,
2013-04-27 18:34:00,66.8,29.8,30.30,SSE,164,8.0,11.0,25,0.00,,,0.00,Wunderground PWS Mod,2013-04-27 22:34:00,
2013-04-27 18:44:00,66.4,29.5,30.30,SE,134,6.0,11.0,25,0.00,,,0.00,Wunderground PWS Mod,2013-04-27 22:44:00,
2013-04-27 18:46:00,66.3,31.3,30.30,SSE,158,6.0,11.0,27,0.00,,,0.00,Wunderground PWS Mod,2013-04-27 22:46:00,
2013-04-27 18:54:00,66.0,30.1,30.30,South,181,6.0,11.0,26,0.00,,,0.00,Wunderground PWS Mod,2013-04-27 22:54:00,
2013-04-27 19:04:00,65.8,30.9,30.30,SE,141,5.0,11.0,27,0.00,,,0.00,Wunderground PWS Mod,2013-04-27 23:04:00,
2013-04-27 19:06:00,66.3,31.3,30.30,SSE,158,6.0,11.0,27,0.00,,,0.00,Wunderground PWS Mod,2013-04-27 23:06:00,
2013-04-27 19:14:00,65.6,30.7,30.29,SE,132,4.0,11.0,27,0.00,,,0.00,Wunderground PWS Mod,2013-04-27 23:14:00,
2013-04-27 19:24:00,65.2,30.3,30.29,SE,138,3.0,11.0,27,0.00,,,0.00,Wunderground PWS Mod,2013-04-27 23:24:00,
2013-04-27 19:34:00,64.6,31.6,30.29,SE,143,4.0,11.0,29,0.00,,,0.00,Wunderground PWS Mod,2013-04-27 23:34:00,
2013-04-27 19:44:00,64.2,32.1,30.29,SSE,158,3.0,11.0,30,0.00,,,0.00,Wunderground PWS Mod,2013-04-27 23:44:00,
2013-04-27 19:50:00,64.0,34.3,30.29,SSE,158,2.0,5.0,33,0.00,,,0.00,Wunderground PWS Mod,2013-04-27 23:50:00,
2013-04-27 19:52:00,64.0,34.3,30.29,SSE,158,2.0,5.0,33,0.00,,,0.00,Wunderground PWS Mod,2013-04-27 23:52:00,
2013-04-27 19:54:00,63.7,33.3,30.29,SSE,155,1.0,11.0,32,0.00,,,0.00,Wunderground PWS Mod,2013-04-27 23:54:00,
2013-04-27 20:04:00,63.2,33.6,30.29,SSE,155,1.0,7.0,33,0.00,,,0.00,Wunderground PWS Mod,2013-04-28 00:04:00,
2013-04-27 20:10:00,64.0,34.3,30.29,SSE,158,2.0,5.0,33,0.00,,,0.00,Wunderground PWS Mod,2013-04-28 00:10:00,
2013-04-27 20:12:00,64.0,34.3,30.29,SSE,158,2.0,5.0,33,0.00,,,0.00,Wunderground PWS Mod,2013-04-28 00:12:00,
2013-04-27 20:13:00,62.5,33.7,30.29,SSE,155,1.0,7.0,34,0.00,,,0.00,Wunderground PWS Mod,2013-04-28 00:13:00,
2013-04-27 20:24:00,62.1,33.4,30.29,SSE,155,2.0,7.0,34,0.00,,,0.00,Wunderground PWS Mod,2013-04-28 00:24:00,
2013-04-27 20:34:00,61.4,34.2,30.29,SSE,155,3.0,7.0,36,0.00,,,0.00,Wunderground PWS Mod,2013-04-28 00:34:00,
2013-04-27 20:36:00,62.4,34.4,30.29,SSE,158,1.0,3.0,35,0.00,,,0.00,Wunderground PWS Mod,2013-04-28 00:36:00,
2013-04-27 20:44:00,60.6,34.8,30.29,SSE,155,1.0,7.0,38,0.00,,,0.00,Wunderground PWS Mod,2013-04-28 00:44:00,
2013-04-27 20:54:00,60.3,35.9,30.29,SSE,155,0.0,7.0,40,0.00,,,0.00,Wunderground PWS Mod,2013-04-28 00:54:00,
2013-04-27 21:04:00,60.8,36.3,30.29,SSE,155,0.0,3.0,40,0.00,,,0.00,Wunderground PWS Mod,2013-04-28 01:04:00,
2013-04-27 21:14:00,60.4,36.6,30.29,SSE,155,1.0,3.0,41,0.00,,,0.00,Wunderground PWS Mod,2013-04-28 01:14:00,
2013-04-27 21:16:00,60.8,36.3,30.29,SSE,158,1.0,3.0,40,0.00,,,0.00,Wunderground PWS Mod,2013-04-28 01:16:00,
2013-04-27 21:24:00,59.7,37.2,30.29,SSE,155,1.0,3.0,43,0.00,,,0.00,Wunderground PWS Mod,2013-04-28 01:24:00,
2013-04-27 21:34:00,59.3,37.4,30.30,SSE,155,1.0,3.0,44,0.00,,,0.00,Wunderground PWS Mod,2013-04-28 01:34:00,
2013-04-27 21:44:00,58.9,38.1,30.29,SSE,155,1.0,3.0,46,0.00,,,0.00,Wunderground PWS Mod,2013-04-28 01:44:00,
2013-04-27 21:48:00,58.7,39.6,30.30,SSE,158,1.0,2.0,49,0.00,,,0.00,Wunderground PWS Mod,2013-04-28 01:48:00,
2013-04-27 21:54:00,58.2,38.6,30.30,SSE,155,1.0,3.0,48,0.00,,,0.00,Wunderground PWS Mod,2013-04-28 01:54:00,
2013-04-27 22:04:00,57.3,38.8,30.30,SSE,155,2.0,2.0,50,0.00,,,0.00,Wunderground PWS Mod,2013-04-28 02:04:00,
2013-04-27 22:14:00,56.1,37.2,30.30,SSE,155,4.0,4.0,49,0.00,,,0.00,Wunderground PWS Mod,2013-04-28 02:14:00,
2013-04-27 22:16:00,58.7,39.6,30.30,SSE,158,1.0,2.0,49,0.00,,,0.00,Wunderground PWS Mod,2013-04-28 02:16:00,
2013-04-27 22:24:00,55.8,36.9,30.30,South,170,4.0,6.0,49,0.00,,,0.00,Wunderground PWS Mod,2013-04-28 02:24:00,
2013-04-27 22:34:00,56.0,38.1,30.30,SSE,151,4.0,6.0,51,0.00,,,0.00,Wunderground PWS Mod,2013-04-28 02:34:00,
2013-04-27 22:44:00,56.3,38.9,30.29,SSE,168,4.0,6.0,52,0.00,,,0.00,Wunderground PWS Mod,2013-04-28 02:44:00,
2013-04-27 22:46:00,56.2,37.8,30.30,SSE,158,3.0,6.0,50,0.00,,,0.00,Wunderground PWS Mod,2013-04-28 02:46:00,
2013-04-27 22:54:00,56.4,39.5,30.29,SSE,166,4.0,6.0,53,0.00,,,0.00,Wunderground PWS Mod,2013-04-28 02:54:00,
2013-04-27 23:04:00,56.4,40.4,30.29,South,181,3.0,6.0,55,0.00,,,0.00,Wunderground PWS Mod,2013-04-28 03:04:00,
2013-04-27 23:14:00,56.3,41.3,30.29,South,191,4.0,7.0,57,0.00,,,0.00,Wunderground PWS Mod,2013-04-28 03:14:00,
2013-04-27 23:18:00,56.3,42.6,30.29,South,180,4.0,7.0,60,0.00,,,0.00,Wunderground PWS Mod,2013-04-28 03:18:00,
2013-04-27 23:24:00,56.3,41.7,30.29,South,189,3.0,7.0,58,0.00,,,0.00,Wunderground PWS Mod,2013-04-28 03:24:00,
2013-04-27 23:34:00,56.3,42.6,30.29,South,175,4.0,7.0,60,0.00,,,0.00,Wunderground PWS Mod,2013-04-28 03:34:00,
2013-04-27 23:44:00,56.2,43.3,30.28,South,183,4.0,7.0,62,0.00,,,0.00,Wunderground PWS Mod,2013-04-28 03:44:00,
2013-04-27 23:48:00,56.1,44.5,30.29,South,180,3.0,7.0,65,0.00,,,0.00,Wunderground PWS Mod,2013-04-28 03:48:00,
2013-04-27 23:54:00,55.9,43.9,30.29,SSW,197,3.0,7.0,64,0.00,,,0.00,Wunderground PWS Mod,2013-04-28 03:54:00,